Location: Pl�tzky
(52.0521°N, 11.8020°E)
Time: 14:36:15
(UTC+00:00)

USA 229 - Pass Details

Date: 27 February 2020
Orbit: 986 x 1226 km, 63.4° (Epoch: 26 March)

Event Time Altitude Azimuth Distance (km) Brightness Sun altitude
Rises 22:53:45 0° 310° (NW) 3,894 7.2 -45.7°
Reaches altitude 10° 22:56:24 10° 315° (NW) 2,970 6.4 -45.8°
Enters shadow 22:58:39 22° 321° (NW) 2,235 5.7 -45.9°
